TimePDT,TemperatureF,Dew PointF,Humidity,Sea Level PressureIn,VisibilityMPH,Wind Direction,Wind SpeedMPH,Gust SpeedMPH,PrecipitationIn,Events,Conditions,WindDirDegrees,DateUTC
12:15 AM,71.6,55.4,57,29.94,10.0,NW,9.2,-,N/A,,Clear,320,2013-08-11 07:15:00
12:35 AM,69.8,55.4,60,29.94,10.0,NW,9.2,-,N/A,,Clear,310,2013-08-11 07:35:00
12:55 AM,69.8,55.4,60,29.94,10.0,NW,10.4,-,N/A,,Clear,310,2013-08-11 07:55:00
1:15 AM,69.8,55.4,60,29.94,10.0,NW,8.1,-,N/A,,Clear,320,2013-08-11 08:15:00
1:35 AM,69.8,55.4,60,29.94,7.0,NW,9.2,-,N/A,,Clear,320,2013-08-11 08:35:00
1:55 AM,69.8,55.4,60,29.94,10.0,NW,11.5,-,N/A,,Clear,320,2013-08-11 08:55:00
2:15 AM,69.8,53.6,56,29.94,10.0,NNW,11.5,-,N/A,,Clear,330,2013-08-11 09:15:00
2:35 AM,68.0,53.6,60,29.94,10.0,NW,11.5,-,N/A,,Clear,320,2013-08-11 09:35:00
2:55 AM,66.2,53.6,64,29.94,10.0,NW,9.2,-,N/A,,Clear,320,2013-08-11 09:55:00
3:15 AM,66.2,53.6,64,29.94,10.0,NW,9.2,-,N/A,,Clear,320,2013-08-11 10:15:00
3:35 AM,66.2,53.6,64,29.94,10.0,NNW,6.9,-,N/A,,Clear,330,2013-08-11 10:35:00
3:55 AM,66.2,53.6,64,29.94,10.0,NNW,8.1,-,N/A,,Clear,330,2013-08-11 10:55:00
4:15 AM,66.2,53.6,64,29.94,10.0,NW,8.1,-,N/A,,Clear,320,2013-08-11 11:15:00
4:35 AM,64.4,53.6,68,29.94,10.0,NW,6.9,-,N/A,,Clear,320,2013-08-11 11:35:00
4:55 AM,64.4,51.8,64,29.95,10.0,NW,5.8,-,N/A,,Clear,310,2013-08-11 11:55:00
5:15 AM,62.6,51.8,68,29.95,10.0,Calm,Calm,-,N/A,,Clear,0,2013-08-11 12:15:00
5:35 AM,60.8,51.8,72,29.95,10.0,Calm,Calm,-,N/A,,Clear,0,2013-08-11 12:35:00
5:55 AM,60.8,51.8,72,29.95,10.0,Calm,Calm,-,N/A,,Clear,0,2013-08-11 12:55:00
6:15 AM,59.0,51.8,77,29.96,10.0,South,3.5,-,N/A,,Clear,180,2013-08-11 13:15:00
6:35 AM,59.0,51.8,77,29.97,10.0,Calm,Calm,-,N/A,,Clear,0,2013-08-11 13:35:00
6:55 AM,60.8,51.8,72,29.97,10.0,South,3.5,-,N/A,,Clear,190,2013-08-11 13:55:00
7:15 AM,62.6,53.6,72,29.97,10.0,South,3.5,-,N/A,,Clear,190,2013-08-11 14:15:00
7:35 AM,62.6,55.4,77,29.97,10.0,SW,3.5,-,N/A,,Clear,220,2013-08-11 14:35:00
7:55 AM,64.4,53.6,68,29.98,10.0,Calm,Calm,-,N/A,,Clear,0,2013-08-11 14:55:00
8:15 AM,66.2,55.4,68,29.98,10.0,Calm,Calm,-,N/A,,Clear,0,2013-08-11 15:15:00
8:35 AM,66.2,55.4,68,29.98,10.0,South,3.5,-,N/A,,Clear,180,2013-08-11 15:35:00
8:55 AM,68.0,55.4,64,29.98,10.0,Calm,Calm,-,N/A,,Clear,0,2013-08-11 15:55:00
9:15 AM,69.8,55.4,60,29.98,10.0,SSW,5.8,-,N/A,,Clear,200,2013-08-11 16:15:00
9:35 AM,71.6,55.4,57,29.97,10.0,SSW,5.8,-,N/A,,Clear,210,2013-08-11 16:35:00
9:55 AM,71.6,55.4,57,29.97,10.0,Calm,Calm,-,N/A,,Clear,0,2013-08-11 16:55:00
10:15 AM,73.4,57.2,57,29.97,10.0,SSW,4.6,-,N/A,,Clear,200,2013-08-11 17:15:00
10:35 AM,73.4,57.2,57,29.97,10.0,Calm,Calm,-,N/A,,Clear,0,2013-08-11 17:35:00
10:55 AM,75.2,57.2,53,29.97,10.0,South,5.8,-,N/A,,Clear,190,2013-08-11 17:55:00
11:15 AM,78.8,57.2,47,29.96,10.0,West,3.5,-,N/A,,Clear,260,2013-08-11 18:15:00
11:35 AM,78.8,57.2,47,29.95,10.0,Calm,Calm,-,N/A,,Clear,0,2013-08-11 18:35:00
11:55 AM,80.6,57.2,45,29.95,10.0,Calm,Calm,-,N/A,,Clear,0,2013-08-11 18:55:00
12:15 PM,82.4,57.2,42,29.94,10.0,NW,6.9,-,N/A,,Clear,320,2013-08-11 19:15:00
12:35 PM,82.4,57.2,42,29.94,10.0,West,5.8,-,N/A,,Clear,280,2013-08-11 19:35:00
12:55 PM,84.2,57.2,40,29.93,10.0,West,6.9,-,N/A,,Clear,270,2013-08-11 19:55:00
1:15 PM,86.0,57.2,37,29.93,10.0,WNW,8.1,-,N/A,,Clear,290,2013-08-11 20:15:00
1:35 PM,86.0,57.2,37,29.92,10.0,WNW,6.9,-,N/A,,Clear,290,2013-08-11 20:35:00
1:55 PM,87.8,57.2,35,29.92,10.0,WNW,6.9,-,N/A,,Clear,300,2013-08-11 20:55:00
2:15 PM,87.8,57.2,35,29.91,10.0,WNW,9.2,-,N/A,,Clear,290,2013-08-11 21:15:00
2:35 PM,89.6,57.2,33,29.90,10.0,WNW,6.9,-,N/A,,Clear,300,2013-08-11 21:35:00
2:55 PM,89.6,57.2,33,29.90,10.0,WNW,9.2,-,N/A,,Clear,290,2013-08-11 21:55:00
3:15 PM,89.6,57.2,33,29.89,10.0,WNW,12.7,-,N/A,,Clear,300,2013-08-11 22:15:00
3:35 PM,91.4,55.4,29,29.88,10.0,WNW,10.4,16.1,N/A,,Clear,300,2013-08-11 22:35:00
3:55 PM,91.4,55.4,29,29.88,10.0,West,9.2,-,N/A,,Clear,270,2013-08-11 22:55:00
4:15 PM,91.4,55.4,29,29.87,10.0,West,9.2,-,N/A,,Clear,280,2013-08-11 23:15:00
4:35 PM,91.4,53.6,28,29.87,10.0,NW,8.1,-,N/A,,Clear,310,2013-08-11 23:35:00
4:55 PM,91.4,53.6,28,29.86,10.0,West,10.4,-,N/A,,Clear,270,2013-08-11 23:55:00
5:15 PM,91.4,51.8,26,29.85,10.0,West,6.9,-,N/A,,Clear,280,2013-08-12 00:15:00
5:35 PM,91.4,53.6,28,29.85,10.0,WNW,9.2,-,N/A,,Clear,290,2013-08-12 00:35:00
5:55 PM,91.4,51.8,26,29.84,10.0,NNW,9.2,-,N/A,,Clear,340,2013-08-12 00:55:00
6:15 PM,91.4,51.8,26,29.84,10.0,NW,8.1,-,N/A,,Clear,320,2013-08-12 01:15:00
6:35 PM,91.4,51.8,26,29.83,10.0,NNW,10.4,-,N/A,,Clear,330,2013-08-12 01:35:00
6:55 PM,89.6,53.6,29,29.84,10.0,WNW,9.2,-,N/A,,Clear,300,2013-08-12 01:55:00
7:15 PM,87.8,55.4,33,29.84,10.0,WNW,6.9,-,N/A,,Clear,300,2013-08-12 02:15:00
7:35 PM,86.0,55.4,35,29.84,10.0,WNW,8.1,-,N/A,,Clear,300,2013-08-12 02:35:00
7:55 PM,84.2,55.4,37,29.85,10.0,WNW,6.9,-,N/A,,Clear,300,2013-08-12 02:55:00
8:15 PM,82.4,55.4,39,29.85,10.0,WNW,6.9,-,N/A,,Clear,300,2013-08-12 03:15:00
8:35 PM,80.6,55.4,42,29.86,10.0,WNW,5.8,-,N/A,,Clear,300,2013-08-12 03:35:00
8:55 PM,78.8,55.4,44,29.86,10.0,WNW,5.8,-,N/A,,Clear,300,2013-08-12 03:55:00
9:15 PM,78.8,53.6,42,29.87,10.0,WNW,4.6,-,N/A,,Clear,300,2013-08-12 04:15:00
9:35 PM,78.8,53.6,42,29.87,10.0,NW,6.9,-,N/A,,Clear,310,2013-08-12 04:35:00
9:55 PM,77.0,53.6,44,29.89,10.0,NW,5.8,-,N/A,,Clear,310,2013-08-12 04:55:00
10:15 PM,75.2,53.6,47,29.89,10.0,NW,5.8,-,N/A,,Clear,310,2013-08-12 05:15:00
10:35 PM,75.2,53.6,47,29.89,10.0,NW,8.1,-,N/A,,Clear,310,2013-08-12 05:35:00
10:55 PM,73.4,51.8,47,29.89,10.0,NW,5.8,-,N/A,,Clear,320,2013-08-12 05:55:00
11:15 PM,73.4,53.6,50,29.89,10.0,NW,5.8,-,N/A,,Clear,320,2013-08-12 06:15:00
11:35 PM,73.4,53.6,50,29.89,10.0,NW,8.1,-,N/A,,Clear,320,2013-08-12 06:35:00
11:55 PM,73.4,53.6,50,29.89,9.0,NW,6.9,-,N/A,,Clear,320,2013-08-12 06:55:00